This is the latest recevied weather packets stored in our database for station/object W4MSI. If no packets are shown the sender has not sent any weather packets the latest 10 day(s).
| Time | Temp. | Humidity | Pressure | Rain* | Wind** | Luminosity | Snow |
|---|---|---|---|---|---|---|---|
| 1777731403 | 13.89° C | 51% | 1017.2 hPa | 0 mm | - | 285 W/m² | - |
| 1777731101 | 13.89° C | 52% | 1017.2 hPa | 0 mm | - | 429 W/m² | - |
| 1777730799 | 13.89° C | 51% | 1017.2 hPa | 0 mm | - | 404 W/m² | - |
| 1777730495 | 13.33° C | 51% | 1017.2 hPa | 0 mm | - | 374 W/m² | - |
| 1777730191 | 13.89° C | 52% | 1017.3 hPa | 0 mm | - | 350 W/m² | - |
| 1777729888 | 13.33° C | 55% | 1017.2 hPa | 0 mm | - | 329 W/m² | - |
| 1777729585 | 13.33° C | 53% | 1017.4 hPa | 0 mm | - | 319 W/m² | - |
| 1777729281 | 13.33° C | 57% | 1017.3 hPa | 0 mm | - | 299 W/m² | - |
| 1777728978 | 13.33° C | 60% | 1017.3 hPa | 0 mm | - | 278 W/m² | - |
| 1777728675 | 12.78° C | 59% | 1017 hPa | 0 mm | - | 268 W/m² | - |
| 1777728372 | 12.78° C | 61% | 1017 hPa | 0 mm | - | 252 W/m² | - |
| 1777728069 | 12.22° C | 61% | 1016.9 hPa | 0 mm | - | 237 W/m² | - |
| 1777727766 | 12.78° C | 60% | 1016.9 hPa | 0 mm | - | 224 W/m² | - |
| 1777727463 | 12.22° C | 63% | 1016.9 hPa | 0 mm | - | 210 W/m² | - |
| 1777727161 | 12.22° C | 61% | 1016.9 hPa | 0 mm | - | 196 W/m² | - |
| 1777726858 | 11.67° C | 63% | 1016.9 hPa | 0 mm | - | 187 W/m² | - |
| 1777726554 | 10.56° C | 69% | 1017.1 hPa | 0 mm | - | 171 W/m² | - |
| 1777726252 | 10.56° C | 66% | 1016.9 hPa | 0 mm | - | 156 W/m² | - |
| 1777725948 | 10° C | 66% | 1016.9 hPa | 0 mm | - | 155 W/m² | - |
| 1777725645 | 10° C | 69% | 1016.8 hPa | 0 mm | - | 142 W/m² | - |
| 1777725344 | 10° C | 70% | 1016.9 hPa | 0 mm | - | 128 W/m² | - |
| 1777725040 | 10° C | 69% | 1016.9 hPa | 0 mm | - | 123 W/m² | - |
| 1777724737 | 8.89° C | 73% | 1016.9 hPa | 0 mm | - | 111 W/m² | - |
| 1777724434 | 8.33° C | 80% | 1016.7 hPa | 0 mm | - | 98 W/m² | - |
| 1777724131 | 8.33° C | 78% | 1016.6 hPa | 0 mm | - | 58 W/m² | - |
* Rain latest hour (hover to see other rain measurements)
** Current wind speed in m/s (hover to see current wind gust speed)